CFE35L EGLC-LESO

Flight info

Callsign CFE35L
Flight time 1h 34m
Altitude 25000
Route SOQQA M87 EKNIV M91 LYD/N0397F240 M189 WAFFU/N0435F320 DCT SITET/N0430F330 UN859 SOPIL DCT BALAN DCT LMG DCT UVELI DCT OSMOB DCT VAVIX DCT BTZ/N0366F190 R10 URUNA P181 SSN
Aircraft E190/M-SDE3GILORVW/S

Departure

Time 2026-04-14 08:36
Airport London City Airport (EGLC)

Arrival

Time 2026-04-14 10:11
Airport San Sebastián Airport (LESO)
Time Latitude Longitude Altitude Speed Heading
2026-04-14 07:19 51.50439 0.04758 23 ft 0 kts 304°
2026-04-14 07:30 51.50440 0.04752 20 ft 0 kts 317°
2026-04-14 07:31 51.50439 0.04758 23 ft 0 kts 304°
2026-04-14 07:53 51.50440 0.04752 20 ft 0 kts 317°
2026-04-14 07:54 51.50439 0.04758 23 ft 0 kts 304°
2026-04-14 08:25 51.50440 0.04755 23 ft 2 kts 304°
2026-04-14 08:25 51.50458 0.04710 24 ft 6 kts 300°
2026-04-14 08:26 51.50471 0.04651 23 ft 6 kts 284°
2026-04-14 08:26 51.50475 0.04582 23 ft 7 kts 274°
2026-04-14 08:26 51.50491 0.04529 23 ft 0 kts 327°
2026-04-14 08:26 51.50492 0.04528 23 ft 1 kts 330°
2026-04-14 08:27 51.50504 0.04528 23 ft 3 kts 356°
2026-04-14 08:27 51.50532 0.04525 23 ft 5 kts 358°
2026-04-14 08:27 51.50553 0.04554 24 ft 5 kts 78°
2026-04-14 08:27 51.50552 0.04643 23 ft 12 kts 92°
2026-04-14 08:28 51.50546 0.04818 23 ft 20 kts 93°
2026-04-14 08:28 51.50539 0.05043 23 ft 21 kts 92°
2026-04-14 08:28 51.50528 0.05285 23 ft 22 kts 96°
2026-04-14 08:28 51.50521 0.05524 23 ft 21 kts 92°
2026-04-14 08:29 51.50514 0.05766 23 ft 22 kts 92°
2026-04-14 08:29 51.50507 0.06011 23 ft 22 kts 92°
2026-04-14 08:29 51.50500 0.06255 23 ft 22 kts 92°
2026-04-14 08:29 51.50494 0.06456 23 ft 8 kts 93°
2026-04-14 08:30 51.50481 0.06536 23 ft 7 kts 111°
2026-04-14 08:30 51.50489 0.06562 23 ft 1 kts
2026-04-14 08:30 51.50494 0.06553 26 ft 1 kts 313°
2026-04-14 08:30 51.50493 0.06518 25 ft 7 kts 268°
2026-04-14 08:31 51.50494 0.06468 23 ft 0 kts 273°
2026-04-14 08:35 51.50497 0.06387 23 ft 35 kts 273°
2026-04-14 08:35 51.50520 0.05637 23 ft 100 kts 272°
2026-04-14 08:36 51.50567 0.04176 95 ft 153 kts 273°
2026-04-14 08:36 51.50630 0.02450 608 ft 143 kts 270°
2026-04-14 08:36 51.50799 0.00959 797 ft 145 kts 283°
2026-04-14 08:36 51.51149 -0.00638 766 ft 164 kts 289°
2026-04-14 08:37 51.51840 -0.02383 820 ft 199 kts 320°
2026-04-14 08:37 51.53163 -0.03245 1042 ft 228 kts 354°
2026-04-14 08:37 51.54869 -0.02892 1019 ft 267 kts 19°
2026-04-14 08:37 51.56647 -0.01432 944 ft 301 kts 40°
2026-04-14 08:38 51.57797 0.01137 1642 ft 271 kts 76°
2026-04-14 08:38 51.58078 0.03854 2592 ft 227 kts 85°
2026-04-14 08:38 51.58367 0.06227 2853 ft 208 kts 79°
2026-04-14 08:38 51.58739 0.08411 2923 ft 196 kts 78°
2026-04-14 08:39 51.59108 0.10474 2922 ft 187 kts 77°
2026-04-14 08:39 51.59449 0.12480 3017 ft 185 kts 80°
2026-04-14 08:39 51.59748 0.14494 3213 ft 191 kts 81°
2026-04-14 08:39 51.60021 0.16573 3310 ft 182 kts 82°
2026-04-14 08:40 51.60278 0.18468 3337 ft 170 kts 81°
2026-04-14 08:40 51.60499 0.20296 3177 ft 162 kts 87°
2026-04-14 08:40 51.60571 0.22123 3009 ft 172 kts 96°
2026-04-14 08:40 51.60491 0.24142 3086 ft 188 kts 99°
2026-04-14 08:41 51.60407 0.26275 3047 ft 193 kts 96°
2026-04-14 08:41 51.60423 0.28426 2937 ft 189 kts 90°
2026-04-14 08:41 51.60525 0.30462 2991 ft 185 kts 88°
2026-04-14 08:41 51.60648 0.32520 3119 ft 186 kts 90°
2026-04-14 08:42 51.60716 0.34610 3189 ft 187 kts 92°
2026-04-14 08:42 51.60742 0.36653 3453 ft 183 kts 93°
2026-04-14 08:42 51.60754 0.38844 3767 ft 208 kts 92°
2026-04-14 08:42 51.60718 0.41345 4018 ft 241 kts 98°
2026-04-14 08:43 51.60444 0.44207 4271 ft 272 kts 105°
2026-04-14 08:43 51.60019 0.47156 5093 ft 276 kts 106°
2026-04-14 08:43 51.59603 0.50181 5973 ft 277 kts 103°
2026-04-14 08:43 51.59268 0.53243 6846 ft 278 kts 101°
2026-04-14 08:44 51.58681 0.56198 7543 ft 280 kts 123°
2026-04-14 08:44 51.57301 0.58365 8227 ft 279 kts 154°
2026-04-14 08:44 51.55441 0.59251 8900 ft 281 kts 173°
2026-04-14 08:44 51.53489 0.59765 9638 ft 286 kts 174°
2026-04-14 08:45 51.51523 0.60271 10364 ft 292 kts 174°
2026-04-14 08:45 51.49438 0.60797 10621 ft 314 kts 174°
2026-04-14 08:45 51.47250 0.61305 11284 ft 319 kts 174°
2026-04-14 08:45 51.45043 0.61818 12110 ft 322 kts 174°
2026-04-14 08:46 51.42802 0.62324 12932 ft 327 kts 175°
2026-04-14 08:46 51.40541 0.62867 13745 ft 333 kts 169°
2026-04-14 08:46 51.38281 0.63849 14563 ft 338 kts 166°
2026-04-14 08:46 51.36021 0.64994 15387 ft 343 kts 164°
2026-04-14 08:47 51.33744 0.66248 16136 ft 347 kts 163°
2026-04-14 08:47 51.31479 0.67512 16903 ft 351 kts 164°
2026-04-14 08:47 51.29152 0.68768 17707 ft 355 kts 165°
2026-04-14 08:47 51.26780 0.69999 18462 ft 360 kts 165°
2026-04-14 08:48 51.24378 0.71225 19064 ft 366 kts 165°
2026-04-14 08:48 51.21956 0.72619 19669 ft 374 kts 160°
2026-04-14 08:48 51.19549 0.74328 20290 ft 381 kts 157°
2026-04-14 08:48 51.17142 0.76171 20881 ft 387 kts 157°
2026-04-14 08:49 51.14689 0.77985 21526 ft 392 kts 158°
2026-04-14 08:49 51.12167 0.79731 22098 ft 397 kts 160°
2026-04-14 08:49 51.09596 0.81433 22647 ft 402 kts 160°
2026-04-14 08:49 51.07002 0.83139 23169 ft 408 kts 160°
2026-04-14 08:50 51.04399 0.84884 23693 ft 412 kts 160°
2026-04-14 08:50 51.01655 0.86222 24101 ft 411 kts 175°
2026-04-14 08:50 50.98819 0.86326 24422 ft 412 kts 192°
2026-04-14 08:50 50.96078 0.84964 24441 ft 417 kts 213°
2026-04-14 08:51 50.93718 0.82232 24300 ft 425 kts 226°
2026-04-14 08:51 50.91551 0.79069 24119 ft 417 kts 229°
2026-04-14 08:51 50.89414 0.75880 24144 ft 425 kts 227°
2026-04-14 08:51 50.87212 0.72780 24153 ft 425 kts 226°
2026-04-14 08:52 50.84969 0.69795 24158 ft 426 kts 225°
2026-04-14 08:52 50.82689 0.66819 24150 ft 426 kts 225°
2026-04-14 08:52 50.80414 0.63811 24150 ft 425 kts 225°
2026-04-14 08:52 50.78163 0.60776 24150 ft 425 kts 226°
2026-04-14 08:53 50.75919 0.57717 24147 ft 425 kts 226°
2026-04-14 08:53 50.73673 0.54661 24149 ft 425 kts 226°
2026-04-14 08:53 50.71413 0.51622 24156 ft 426 kts 225°
2026-04-14 08:53 50.69140 0.48703 24155 ft 427 kts 224°
2026-04-14 08:54 50.66805 0.45810 24149 ft 428 kts 223°
2026-04-14 08:54 50.64452 0.42904 24149 ft 428 kts 224°
2026-04-14 08:54 50.62122 0.39984 24152 ft 428 kts 224°
2026-04-14 08:54 50.59803 0.37035 24150 ft 428 kts 224°
2026-04-14 08:55 50.57337 0.34373 24154 ft 436 kts 213°
2026-04-14 08:55 50.54623 0.32223 24157 ft 438 kts 211°
2026-04-14 08:55 50.51842 0.30209 24147 ft 440 kts 209°
2026-04-14 08:55 50.49047 0.28257 24146 ft 440 kts 209°
2026-04-14 08:56 50.46256 0.26281 24145 ft 440 kts 210°
2026-04-14 08:56 50.43478 0.24258 24149 ft 440 kts 211°
2026-04-14 08:56 50.40710 0.22209 24147 ft 440 kts 211°
2026-04-14 08:56 50.37938 0.20160 24146 ft 440 kts 211°
2026-04-14 08:57 50.35157 0.18122 24148 ft 441 kts 210°
2026-04-14 08:57 50.32407 0.16125 24149 ft 441 kts 210°
2026-04-14 08:57 50.29609 0.14100 24146 ft 441 kts 210°
2026-04-14 08:57 50.26827 0.12086 24148 ft 442 kts 210°
2026-04-14 08:58 50.24035 0.10062 24150 ft 442 kts 210°
2026-04-14 08:58 50.21244 0.08038 24146 ft 442 kts 211°
2026-04-14 08:58 50.18451 0.06016 24147 ft 443 kts 210°
2026-04-14 08:58 50.15655 0.03997 24148 ft 443 kts 210°
2026-04-14 08:59 50.12876 0.02005 24147 ft 444 kts 208°
2026-04-14 08:59 50.09863 0.00697 24163 ft 456 kts 191°
2026-04-14 08:59 50.06661 0.00921 24162 ft 466 kts 173°
2026-04-14 08:59 50.03474 0.02024 24179 ft 468 kts 168°
2026-04-14 09:00 50.00354 0.03345 24129 ft 468 kts 167°
2026-04-14 09:00 49.97209 0.04681 24112 ft 468 kts 168°
2026-04-14 09:00 49.94048 0.05889 24156 ft 468 kts 169°
2026-04-14 09:00 49.90859 0.06990 24153 ft 468 kts 171°
2026-04-14 09:01 49.87681 0.08057 24149 ft 468 kts 170°
2026-04-14 09:01 49.84507 0.09154 24157 ft 468 kts 170°
2026-04-14 09:01 49.81332 0.10292 24150 ft 468 kts 169°
2026-04-14 09:01 49.78153 0.11450 24151 ft 468 kts 169°
2026-04-14 09:02 49.74982 0.12599 24150 ft 468 kts 169°
2026-04-14 09:02 49.71811 0.13735 24161 ft 468 kts 169°
2026-04-14 09:02 49.68642 0.14859 24159 ft 467 kts 169°
2026-04-14 09:02 49.65512 0.15966 24159 ft 468 kts 169°
2026-04-14 09:03 49.62335 0.17092 24155 ft 468 kts 169°
2026-04-14 09:03 49.59164 0.18219 24161 ft 468 kts 169°
2026-04-14 09:03 49.55986 0.19347 24157 ft 468 kts 169°
2026-04-14 09:03 49.52815 0.20472 24165 ft 468 kts 169°
2026-04-14 09:04 49.49638 0.21595 24157 ft 467 kts 169°
2026-04-14 09:04 49.46463 0.22714 24157 ft 468 kts 169°
2026-04-14 09:04 49.43317 0.23822 24160 ft 468 kts 169°
2026-04-14 09:04 49.40141 0.24940 24158 ft 468 kts 169°
2026-04-14 09:05 49.36966 0.26058 24162 ft 468 kts 169°
2026-04-14 09:05 49.33791 0.27175 24152 ft 468 kts 169°
2026-04-14 09:05 49.30610 0.28292 24152 ft 468 kts 169°
2026-04-14 09:05 49.27428 0.29406 24160 ft 469 kts 169°
2026-04-14 09:06 49.24243 0.30521 24158 ft 469 kts 169°
2026-04-14 09:06 49.21058 0.31634 24162 ft 469 kts 169°
2026-04-14 09:06 49.17869 0.32745 24157 ft 469 kts 169°
2026-04-14 09:06 49.14693 0.33851 24168 ft 469 kts 169°
2026-04-14 09:07 49.11507 0.34960 24163 ft 469 kts 169°
2026-04-14 09:07 49.08367 0.36052 24162 ft 469 kts 169°
2026-04-14 09:07 49.05183 0.37156 24164 ft 469 kts 169°
2026-04-14 09:07 49.02002 0.38259 24174 ft 469 kts 169°
2026-04-14 09:08 48.98816 0.39364 24168 ft 469 kts 168°
2026-04-14 09:08 48.95626 0.40469 24175 ft 469 kts 169°
2026-04-14 09:08 48.92435 0.41569 24171 ft 469 kts 169°
2026-04-14 09:08 48.89289 0.42653 24164 ft 469 kts 168°
2026-04-14 09:09 48.86095 0.43752 24177 ft 469 kts 168°
2026-04-14 09:09 48.82914 0.44848 24172 ft 469 kts 168°
2026-04-14 09:09 48.79725 0.45945 24178 ft 469 kts 168°
2026-04-14 09:09 48.76536 0.47038 24174 ft 469 kts 168°
2026-04-14 09:10 48.74427 0.47761 24177 ft 469 kts 168°
2026-04-14 09:10 48.71237 0.48854 24184 ft 470 kts 168°
2026-04-14 09:10 48.67001 0.50301 24178 ft 469 kts 168°
2026-04-14 09:10 48.64850 0.51036 24183 ft 469 kts 168°
2026-04-14 09:11 48.61656 0.52124 24183 ft 469 kts 168°
2026-04-14 09:11 48.58497 0.53200 24186 ft 470 kts 168°
2026-04-14 09:11 48.55298 0.54290 24190 ft 469 kts 168°
2026-04-14 09:11 48.52111 0.55376 24183 ft 469 kts 168°
2026-04-14 09:12 48.48918 0.56459 24182 ft 470 kts 168°
2026-04-14 09:12 48.45721 0.57539 24182 ft 470 kts 168°
2026-04-14 09:12 48.42529 0.58617 24184 ft 470 kts 168°
2026-04-14 09:12 48.39378 0.59680 24190 ft 469 kts 168°
2026-04-14 09:13 48.36195 0.60755 24187 ft 469 kts 168°
2026-04-14 09:13 48.33001 0.61833 24187 ft 469 kts 168°
2026-04-14 09:13 48.29806 0.62909 24187 ft 469 kts 168°
2026-04-14 09:13 48.26645 0.63973 24186 ft 469 kts 168°
2026-04-14 09:14 48.23455 0.65047 24187 ft 469 kts 168°
2026-04-14 09:14 48.20255 0.66119 24192 ft 469 kts 168°
2026-04-14 09:14 48.17060 0.67189 24194 ft 469 kts 168°
2026-04-14 09:14 48.13915 0.68242 24192 ft 469 kts 168°
2026-04-14 09:15 48.10727 0.69308 24191 ft 469 kts 168°
2026-04-14 09:15 48.07539 0.70372 24188 ft 469 kts 168°
2026-04-14 09:15 48.04352 0.71432 24186 ft 469 kts 168°
2026-04-14 09:15 48.01161 0.72495 24191 ft 469 kts 168°
2026-04-14 09:16 47.97968 0.73557 24190 ft 469 kts 168°
2026-04-14 09:16 47.94785 0.74615 24195 ft 469 kts 168°
2026-04-14 09:16 47.91602 0.75669 24193 ft 469 kts 168°
2026-04-14 09:16 47.88423 0.76722 24189 ft 469 kts 168°
2026-04-14 09:17 47.85235 0.77777 24192 ft 468 kts 168°
2026-04-14 09:17 47.82047 0.78831 24192 ft 468 kts 168°
2026-04-14 09:17 47.78863 0.79882 24191 ft 468 kts 168°
2026-04-14 09:17 47.75681 0.80931 24194 ft 468 kts 168°
2026-04-14 09:18 47.72532 0.81968 24191 ft 468 kts 168°
2026-04-14 09:18 47.69356 0.83012 24197 ft 468 kts 168°
2026-04-14 09:18 47.66150 0.84066 24200 ft 468 kts 168°
2026-04-14 09:18 47.62977 0.85106 24205 ft 468 kts 168°
2026-04-14 09:19 47.59781 0.86151 24205 ft 468 kts 168°
2026-04-14 09:19 47.56595 0.87193 24210 ft 468 kts 168°
2026-04-14 09:19 47.53462 0.88216 24209 ft 467 kts 167°
2026-04-14 09:19 47.50280 0.89256 24213 ft 468 kts 167°
2026-04-14 09:20 47.47100 0.90294 24211 ft 468 kts 167°
2026-04-14 09:20 47.43921 0.91330 24209 ft 468 kts 167°
2026-04-14 09:20 47.40740 0.92362 24207 ft 468 kts 168°
2026-04-14 09:20 47.37562 0.93392 24204 ft 467 kts 167°
2026-04-14 09:21 47.34387 0.94421 24210 ft 467 kts 167°
2026-04-14 09:21 47.31216 0.95448 24209 ft 467 kts 167°
2026-04-14 09:21 47.28033 0.96479 24206 ft 467 kts 167°
2026-04-14 09:21 47.24896 0.97493 24204 ft 467 kts 167°
2026-04-14 09:22 47.21718 0.98518 24201 ft 467 kts 167°
2026-04-14 09:22 47.18506 0.99553 24200 ft 467 kts 167°
2026-04-14 09:22 47.15371 1.00561 24196 ft 467 kts 167°
2026-04-14 09:22 47.12191 1.01585 24194 ft 467 kts 167°
2026-04-14 09:23 47.09024 1.02602 24198 ft 467 kts 167°
2026-04-14 09:23 47.05843 1.03622 24200 ft 467 kts 167°
2026-04-14 09:23 47.02664 1.04541 24198 ft 467 kts 174°
2026-04-14 09:23 46.99427 1.04763 24213 ft 467 kts 180°
2026-04-14 09:24 46.96175 1.04701 24191 ft 466 kts 183°
2026-04-14 09:24 46.92931 1.04510 24198 ft 466 kts 184°
2026-04-14 09:24 46.89687 1.04326 24199 ft 466 kts 183°
2026-04-14 09:24 46.86444 1.04216 24201 ft 466 kts 182°
2026-04-14 09:25 46.83243 1.04166 24192 ft 467 kts 181°
2026-04-14 09:25 46.79996 1.04129 24202 ft 466 kts 181°
2026-04-14 09:25 46.76752 1.04075 24199 ft 466 kts 182°
2026-04-14 09:25 46.73510 1.03996 24206 ft 466 kts 182°
2026-04-14 09:26 46.70260 1.03909 24201 ft 466 kts 182°
2026-04-14 09:26 46.67014 1.03826 24197 ft 466 kts 182°
2026-04-14 09:26 46.63776 1.03751 24204 ft 467 kts 181°
2026-04-14 09:26 46.60532 1.03678 24198 ft 467 kts 181°
2026-04-14 09:27 46.57273 1.03604 24209 ft 467 kts 181°
2026-04-14 09:27 46.54028 1.03529 24204 ft 467 kts 181°
2026-04-14 09:27 46.50782 1.03454 24194 ft 467 kts 181°
2026-04-14 09:27 46.47527 1.03393 24204 ft 467 kts 181°
2026-04-14 09:28 46.44274 1.03358 24200 ft 467 kts 181°
2026-04-14 09:28 46.41024 1.03331 24206 ft 467 kts 181°
2026-04-14 09:28 46.37774 1.03293 24184 ft 467 kts 181°
2026-04-14 09:28 46.34528 1.03247 24192 ft 467 kts 181°
2026-04-14 09:29 46.31268 1.03201 24200 ft 468 kts 181°
2026-04-14 09:29 46.28010 1.03157 24190 ft 468 kts 181°
2026-04-14 09:29 46.24765 1.03114 24189 ft 468 kts 181°
2026-04-14 09:29 46.21506 1.03072 24195 ft 468 kts 181°
2026-04-14 09:30 46.18252 1.03031 24192 ft 468 kts 181°
2026-04-14 09:30 46.14998 1.02988 24190 ft 468 kts 181°
2026-04-14 09:30 46.11744 1.02944 24188 ft 468 kts 181°
2026-04-14 09:30 46.08487 1.02900 24186 ft 468 kts 181°
2026-04-14 09:31 46.05239 1.02859 24180 ft 468 kts 181°
2026-04-14 09:31 46.02016 1.02821 24183 ft 468 kts 181°
2026-04-14 09:31 45.98722 1.02781 24182 ft 468 kts 181°
2026-04-14 09:31 45.95499 1.02740 24184 ft 468 kts 181°
2026-04-14 09:32 45.92244 1.02697 24188 ft 468 kts 181°
2026-04-14 09:32 45.88982 1.02654 24192 ft 468 kts 181°
2026-04-14 09:32 45.82494 1.02136 24196 ft 466 kts 195°
2026-04-14 09:33 45.79539 1.00351 24203 ft 459 kts 216°
2026-04-14 09:33 45.77004 0.97593 24226 ft 457 kts 224°
2026-04-14 09:33 45.74646 0.94551 24160 ft 454 kts 227°
2026-04-14 09:33 45.72330 0.91448 24186 ft 455 kts 226°
2026-04-14 09:34 45.69952 0.88438 24184 ft 456 kts 224°
2026-04-14 09:34 45.67501 0.85542 24172 ft 458 kts 223°
2026-04-14 09:34 45.65010 0.82692 24179 ft 458 kts 222°
2026-04-14 09:34 45.62533 0.79839 24191 ft 458 kts 223°
2026-04-14 09:35 45.60108 0.76982 24198 ft 458 kts 224°
2026-04-14 09:35 45.57663 0.74060 24195 ft 458 kts 224°
2026-04-14 09:35 45.55219 0.71136 24199 ft 459 kts 224°
2026-04-14 09:35 45.52773 0.68226 24199 ft 458 kts 224°
2026-04-14 09:36 45.50307 0.65314 24197 ft 459 kts 223°
2026-04-14 09:36 45.47840 0.62413 24202 ft 459 kts 223°
2026-04-14 09:36 45.45372 0.59516 24204 ft 460 kts 223°
2026-04-14 09:36 45.42906 0.56618 24205 ft 460 kts 224°
2026-04-14 09:37 45.40446 0.53721 24208 ft 460 kts 224°
2026-04-14 09:37 45.37977 0.50814 24209 ft 460 kts 224°
2026-04-14 09:37 45.35499 0.47905 24211 ft 460 kts 224°
2026-04-14 09:37 45.33033 0.45018 24216 ft 460 kts 224°
2026-04-14 09:38 45.30560 0.42126 24212 ft 461 kts 224°
2026-04-14 09:38 45.28076 0.39224 24213 ft 461 kts 224°
2026-04-14 09:38 45.25628 0.36366 24223 ft 461 kts 224°
2026-04-14 09:38 45.23151 0.33475 24221 ft 462 kts 224°
2026-04-14 09:39 45.20669 0.30586 24217 ft 462 kts 224°
2026-04-14 09:39 45.18183 0.27696 24217 ft 462 kts 224°
2026-04-14 09:39 45.15695 0.24804 24223 ft 463 kts 224°
2026-04-14 09:39 45.13205 0.21911 24222 ft 463 kts 224°
2026-04-14 09:40 45.10711 0.19019 24225 ft 464 kts 224°
2026-04-14 09:40 45.08209 0.16121 24223 ft 464 kts 224°
2026-04-14 09:40 45.05709 0.13227 24228 ft 464 kts 224°
2026-04-14 09:40 45.03204 0.10333 24226 ft 465 kts 224°
2026-04-14 09:41 45.00701 0.07436 24225 ft 465 kts 224°
2026-04-14 09:41 44.98209 0.04539 24229 ft 465 kts 224°
2026-04-14 09:41 44.95708 0.01628 24229 ft 465 kts 224°
2026-04-14 09:41 44.93204 -0.01282 24229 ft 466 kts 224°
2026-04-14 09:42 44.90711 -0.04170 24225 ft 466 kts 224°
2026-04-14 09:42 44.88193 -0.07078 24226 ft 466 kts 224°
2026-04-14 09:42 44.85688 -0.09967 24225 ft 466 kts 224°
2026-04-14 09:42 44.83171 -0.12866 24226 ft 467 kts 224°
2026-04-14 09:43 44.80685 -0.15730 24227 ft 466 kts 224°
2026-04-14 09:43 44.78179 -0.18615 24229 ft 467 kts 224°
2026-04-14 09:43 44.75663 -0.21506 24227 ft 467 kts 224°
2026-04-14 09:43 44.73141 -0.24402 24224 ft 467 kts 224°
2026-04-14 09:44 44.70622 -0.27290 24226 ft 467 kts 224°
2026-04-14 09:44 44.68100 -0.30179 24228 ft 468 kts 224°
2026-04-14 09:44 44.65575 -0.33067 24225 ft 468 kts 224°
2026-04-14 09:44 44.63020 -0.35929 24228 ft 469 kts 221°
2026-04-14 09:45 44.60335 -0.38577 24228 ft 472 kts 218°
2026-04-14 09:45 44.57565 -0.41070 24226 ft 473 kts 216°
2026-04-14 09:45 44.54790 -0.43563 24226 ft 473 kts 217°
2026-04-14 09:45 44.52067 -0.46124 24229 ft 472 kts 219°
2026-04-14 09:46 44.49366 -0.48758 24221 ft 472 kts 219°
2026-04-14 09:46 44.46715 -0.51367 24225 ft 472 kts 219°
2026-04-14 09:46 44.44022 -0.53989 24225 ft 472 kts 219°
2026-04-14 09:46 44.41313 -0.56590 24226 ft 472 kts 219°
2026-04-14 09:47 44.38596 -0.59176 24227 ft 472 kts 218°
2026-04-14 09:47 44.35874 -0.61768 24224 ft 472 kts 218°
2026-04-14 09:47 44.33163 -0.64355 24227 ft 472 kts 219°
2026-04-14 09:47 44.30461 -0.66939 24231 ft 472 kts 219°
2026-04-14 09:48 44.27751 -0.69530 24230 ft 472 kts 219°
2026-04-14 09:48 44.25064 -0.72142 24231 ft 471 kts 220°
2026-04-14 09:48 44.22423 -0.74848 24231 ft 470 kts 221°
2026-04-14 09:48 44.19803 -0.77595 24229 ft 470 kts 221°
2026-04-14 09:49 44.17189 -0.80313 24232 ft 470 kts 221°
2026-04-14 09:49 44.14550 -0.83005 24230 ft 471 kts 220°
2026-04-14 09:49 44.11891 -0.85679 24232 ft 471 kts 220°
2026-04-14 09:49 44.09239 -0.88339 24230 ft 471 kts 220°
2026-04-14 09:50 44.06578 -0.91019 24228 ft 471 kts 220°
2026-04-14 09:50 44.03929 -0.93698 24228 ft 470 kts 220°
2026-04-14 09:50 44.01321 -0.96337 24232 ft 470 kts 220°
2026-04-14 09:50 43.98677 -0.99008 24227 ft 470 kts 220°
2026-04-14 09:51 43.96160 -1.01544 24232 ft 471 kts 220°
2026-04-14 09:51 43.93420 -1.04298 24234 ft 470 kts 220°
2026-04-14 09:51 43.90773 -1.06953 24240 ft 470 kts 220°
2026-04-14 09:51 43.88115 -1.09620 24239 ft 470 kts 220°
2026-04-14 09:52 43.85463 -1.12277 24236 ft 470 kts 220°
2026-04-14 09:52 43.82818 -1.14926 24234 ft 469 kts 220°
2026-04-14 09:52 43.80174 -1.17571 24238 ft 469 kts 220°
2026-04-14 09:52 43.77532 -1.20207 24043 ft 461 kts 220°
2026-04-14 09:53 43.74972 -1.22754 23674 ft 445 kts 220°
2026-04-14 09:53 43.72527 -1.25185 23071 ft 435 kts 220°
2026-04-14 09:53 43.70098 -1.27611 22499 ft 426 kts 220°
2026-04-14 09:53 43.67723 -1.29983 21940 ft 417 kts 220°
2026-04-14 09:54 43.65396 -1.32302 21382 ft 409 kts 220°
2026-04-14 09:54 43.63100 -1.34585 20834 ft 402 kts 220°
2026-04-14 09:54 43.60848 -1.36822 20313 ft 397 kts 219°
2026-04-14 09:54 43.58610 -1.39044 19782 ft 396 kts 219°
2026-04-14 09:55 43.56372 -1.41263 19272 ft 394 kts 219°
2026-04-14 09:55 43.54156 -1.43459 18735 ft 390 kts 219°
2026-04-14 09:55 43.51972 -1.45619 18210 ft 385 kts 219°
2026-04-14 09:55 43.49811 -1.47751 17727 ft 379 kts 219°
2026-04-14 09:56 43.47676 -1.49871 17229 ft 375 kts 221°
2026-04-14 09:56 43.45879 -1.52361 16729 ft 367 kts 236°
2026-04-14 09:56 43.44388 -1.55222 16253 ft 362 kts 240°
2026-04-14 09:56 43.43041 -1.58115 15761 ft 358 kts 242°
2026-04-14 09:57 43.42181 -1.60046 15405 ft 357 kts 242°
2026-04-14 09:57 43.40454 -1.63850 14824 ft 350 kts 241°
2026-04-14 09:57 43.39121 -1.66629 14325 ft 344 kts 239°
2026-04-14 09:57 43.37789 -1.69320 13867 ft 339 kts 239°
2026-04-14 09:58 43.36484 -1.71952 13454 ft 325 kts 239°
2026-04-14 09:58 43.35644 -1.73656 13140 ft 312 kts 240°
2026-04-14 09:58 43.34452 -1.76105 12857 ft 305 kts 240°
2026-04-14 09:58 43.33276 -1.78561 12378 ft 310 kts 240°
2026-04-14 09:59 43.32100 -1.81032 11936 ft 307 kts 243°
2026-04-14 09:59 43.31358 -1.83689 11657 ft 290 kts 266°
2026-04-14 09:59 43.31483 -1.86341 11228 ft 281 kts 293°
2026-04-14 09:59 43.32510 -1.88529 10894 ft 271 kts 320°
2026-04-14 10:00 43.34109 -1.89836 10512 ft 268 kts 337°
2026-04-14 10:00 43.35819 -1.90867 10111 ft 268 kts 336°
2026-04-14 10:00 43.37487 -1.91946 9777 ft 263 kts 334°
2026-04-14 10:00 43.39106 -1.93098 9431 ft 264 kts 332°
2026-04-14 10:01 43.40716 -1.94312 9096 ft 263 kts 331°
2026-04-14 10:01 43.42305 -1.95571 8718 ft 263 kts 328°
2026-04-14 10:01 43.43754 -1.97095 8393 ft 262 kts 320°
2026-04-14 10:01 43.45308 -1.98351 8002 ft 261 kts 346°
2026-04-14 10:02 43.47066 -1.98218 7794 ft 261 kts 19°
2026-04-14 10:02 43.48496 -1.96655 7599 ft 274 kts 52°
2026-04-14 10:02 43.49136 -1.94130 7184 ft 287 kts 82°
2026-04-14 10:02 43.49094 -1.91378 6792 ft 286 kts 89°
2026-04-14 10:03 43.49218 -1.88680 6262 ft 282 kts 74°
2026-04-14 10:03 43.49938 -1.86217 5867 ft 274 kts 56°
2026-04-14 10:03 43.51010 -1.84126 5477 ft 258 kts 49°
2026-04-14 10:03 43.52071 -1.82239 5174 ft 241 kts 51°
2026-04-14 10:04 43.52945 -1.80378 4889 ft 228 kts 57°
2026-04-14 10:04 43.53654 -1.78467 4587 ft 218 kts 62°
2026-04-14 10:04 43.54260 -1.76601 4304 ft 209 kts 63°
2026-04-14 10:04 43.54734 -1.74735 4066 ft 207 kts 84°
2026-04-14 10:05 43.54388 -1.72848 3840 ft 204 kts 118°
2026-04-14 10:05 43.53583 -1.71265 3566 ft 201 kts 130°
2026-04-14 10:05 43.52615 -1.69863 3213 ft 201 kts 136°
2026-04-14 10:05 43.51638 -1.68529 2992 ft 195 kts 135°
2026-04-14 10:06 43.50757 -1.67183 2830 ft 187 kts 130°
2026-04-14 10:06 43.49949 -1.65793 2682 ft 186 kts 134°
2026-04-14 10:06 43.48820 -1.64964 2387 ft 186 kts 179°
2026-04-14 10:06 43.47671 -1.65533 2396 ft 177 kts 217°
2026-04-14 10:07 43.46701 -1.66648 2321 ft 185 kts 224°
2026-04-14 10:07 43.45782 -1.67865 2240 ft 179 kts 225°
2026-04-14 10:07 43.44878 -1.69011 2181 ft 171 kts 222°
2026-04-14 10:07 43.43989 -1.70013 2036 ft 160 kts 219°
2026-04-14 10:08 43.43109 -1.70925 1783 ft 155 kts 217°
2026-04-14 10:08 43.42270 -1.71788 1571 ft 149 kts 217°
2026-04-14 10:08 43.41467 -1.72643 1359 ft 142 kts 219°
2026-04-14 10:08 43.40721 -1.73469 1166 ft 136 kts 219°
2026-04-14 10:09 43.39985 -1.74298 1058 ft 136 kts 219°
2026-04-14 10:09 43.39269 -1.75103 918 ft 130 kts 219°
2026-04-14 10:09 43.38567 -1.75877 666 ft 129 kts 218°
2026-04-14 10:09 43.37868 -1.76639 429 ft 125 kts 219°
2026-04-14 10:10 43.37190 -1.77369 273 ft 126 kts 218°
2026-04-14 10:10 43.36506 -1.78123 140 ft 125 kts 219°
2026-04-14 10:10 43.35826 -1.78865 19 ft 118 kts 218°
2026-04-14 10:10 43.35321 -1.79422 18 ft 64 kts 219°
2026-04-14 10:11 43.35098 -1.79693 18 ft 18 kts 245°
2026-04-14 10:11 43.35056 -1.79719 18 ft 6 kts 89°
2026-04-14 10:11 43.35087 -1.79678 18 ft 7 kts 39°
2026-04-14 10:11 43.35133 -1.79628 18 ft 10 kts 39°
2026-04-14 10:12 43.35188 -1.79568 19 ft 11 kts 38°
2026-04-14 10:12 43.35248 -1.79502 19 ft 12 kts 38°
2026-04-14 10:12 43.35328 -1.79415 18 ft 17 kts 38°
2026-04-14 10:12 43.35423 -1.79312 18 ft 17 kts 40°
2026-04-14 10:13 43.35522 -1.79204 17 ft 19 kts 38°
2026-04-14 10:13 43.35606 -1.79125 18 ft 8 kts 357°
2026-04-14 10:13 43.35640 -1.79162 17 ft 5 kts 306°
2026-04-14 10:13 43.35656 -1.79194 16 ft 0 kts 297°
2026-04-14 10:14 43.35658 -1.79204 16 ft 2 kts 278°
2026-04-14 10:14 43.35650 -1.79215 16 ft 2 kts 221°
2026-04-14 10:14 43.35636 -1.79231 16 ft 3 kts 220°
2026-04-14 10:14 43.35633 -1.79236 16 ft 0 kts 220°
2026-04-14 10:22 43.39012 -1.75388 837 ft 130 kts 219°
2026-04-14 10:22 43.38308 -1.76159 572 ft 129 kts 219°
2026-04-14 10:23 43.37730 -1.76790 394 ft 131 kts 218°
2026-04-14 10:23 43.35940 -1.78741 30 ft 123 kts 218°
2026-04-14 10:25 43.39205 -1.75174 906 ft 132 kts 219°
2026-04-14 10:26 43.36643 -1.77971 157 ft 126 kts 219°
2026-04-14 10:27 43.36357 -1.78285 116 ft 126 kts 219°
2026-04-14 10:27 43.35690 -1.79017 17 ft 111 kts 219°
2026-04-14 10:27 43.36427 -1.78399 40 ft 115 kts 252°
2026-04-14 10:27 43.35983 -1.78694 38 ft 125 kts 219°
2026-04-14 10:28 43.35417 -1.79317 19 ft 78 kts 218°
2026-04-14 10:28 43.37895 -1.76609 435 ft 126 kts 219°
2026-04-14 10:28 43.39205 -1.75174 906 ft 133 kts 219°
2026-04-14 10:29 43.37907 -1.76596 432 ft 127 kts 219°
2026-04-14 10:29 43.37446 -1.77098 324 ft 125 kts 218°
2026-04-14 10:29 43.36845 -1.77745 206 ft 129 kts 219°
2026-04-14 10:30 43.36376 -1.78264 119 ft 125 kts 219°
2026-04-14 10:31 43.35707 -1.78997 17 ft 112 kts 219°
2026-04-14 10:31 43.35261 -1.79488 19 ft 55 kts 219°
2026-04-14 10:31 43.34880 -1.79893 47 ft 12 kts 220°
2026-04-14 10:31 43.34986 -1.79785 18 ft 2 kts 355°